{"data":{"norad_id":59360,"epoch":"2026-09-21T07:25:45.530400Z","epoch_age_seconds":92255,"freshness":"FRESH","line1":"1 59360U 24060N   26264.30955475  .00000374  00000+0  23126-4 0  9994","line2":"2 59360  43.0037 234.8188 0001156 280.0892  79.9829 15.27578737139984","mean_motion":15.27578737,"eccentricity":0.0001156,"inclination_deg":43.0037,"raan_deg":234.8188,"arg_perigee_deg":280.0892,"mean_anomaly_deg":79.9829,"bstar":2.3126e-5,"rev_number":13998,"period_min":94.26682665327,"perigee_km":482.25972436873,"apogee_km":483.84603146851,"semimajor_km":6861.1898779186,"source":"CELESTRAK","updated_at":"2026-09-22T09:00:48.905358Z"}}